Weather History for Monchengladbach, Germany

Change the Weather History Date:

Monday, November 4, 2013

  Actual Average Record
Temperature  
Mean Temperature 52 °F -  
Max Temperature 59 °F 46 °F 69 °F (2011)
Min Temperature 42 °F 36 °F 35 °F (1997)
Degree Days  
Heating Degree Days 14    
Growing Degree Days 2 (Base 50)    
Moisture  
Dew Point 47 °F    
Average Humidity 86    
Maximum Humidity 100    
Minimum Humidity 72    
Precipitation  
Precipitation 0.00 in - - ()
Sea Level Pressure  
Sea Level Pressure 29.13 in    
Wind  
Wind Speed 14 mph ()    
Max Wind Speed 22 mph    
Max Gust Speed 29 mph    
Visibility 5.6 miles    
Events Rain    
Averages and records for this station are not official NWS values.
T = Trace of Precipitation, MM = Missing Value Source: Averaged Metar Reports

Daily Weather History Graph

Daily Weather History Graph

Search for Another Location

Airport:

Trip Planner

Search our weather history database for the weather conditions in past years. The results will help you decide how hot, cold, wet, or windy it might be!

Date:

Astronomy

Nov. 04, 2013 Rise Set
Actual Time 7:32 AM CET 5:02 PM CET
Civil Twilight 6:56 AM CET 5:37 PM CET
Nautical Twilight 6:17 AM CET 6:16 PM CET
Astronomical Twilight 5:38 AM CET 6:55 PM CET
Moon 8:31 AM CET (11/4) 5:45 PM CET (11/4)
Length of Visible Light 10h 40m
Length of Day
9h 30m
New Moon, 1% of the Moon is Illuminated
Nov 4
New Moon
Nov 10
First Quarter
Nov 17
Full
Nov 25
Last Quarter
Dec 3
New

Hourly Weather History & Observations

Time (CET) Temp. Windchill Dew Point Humidity Pressure Visibility Wind Dir Wind Speed Gust Speed Precip Events Conditions
7:50 AM 53.6 °F - 48.2 °F 82% 29.09 in 6.2 mi SSW 20.7 mph - N/A   Mostly Cloudy
8:20 AM 55.4 °F - 48.2 °F 77% 29.09 in 6.2 mi South 18.4 mph - N/A   Mostly Cloudy
8:50 AM 55.4 °F - 50.0 °F 82% 29.09 in 3.1 mi SSW 21.9 mph - N/A Rain Rain Showers
9:20 AM 55.4 °F - 50.0 °F 82% 29.09 in 6.2 mi SSW 13.8 mph - N/A   Mostly Cloudy
9:50 AM 55.4 °F - 50.0 °F 82% 29.09 in 6.2 mi SSW 16.1 mph 27.6 mph N/A   Mostly Cloudy
10:20 AM 55.4 °F - 50.0 °F 82% 29.09 in 6.2 mi SSW 17.3 mph - N/A   Mostly Cloudy
10:50 AM 55.4 °F - 50.0 °F 82% 29.06 in 6.2 mi SSW 16.1 mph - N/A   Scattered Clouds
11:20 AM 57.2 °F - 50.0 °F 77% 29.06 in 6.2 mi SSW 13.8 mph - N/A   Scattered Clouds
11:50 AM 59.0 °F - 50.0 °F 72% 29.06 in 6.2 mi SSW 16.1 mph 28.8 mph N/A   Scattered Clouds
12:20 PM 57.2 °F - 50.0 °F 77% 29.03 in 6.2 mi SW 13.8 mph 26.5 mph N/A   Mostly Cloudy
12:50 PM 57.2 °F - 50.0 °F 77% 29.03 in 4.3 mi SW 15.0 mph 26.5 mph N/A Rain Rain Showers
1:20 PM 55.4 °F - 51.8 °F 88% 29.03 in 6.2 mi WSW 13.8 mph 25.3 mph N/A   Mostly Cloudy
1:50 PM 55.4 °F - 51.8 °F 88% 29.03 in 6.2 mi SW 12.7 mph - N/A   Mostly Cloudy
2:20 PM 55.4 °F - 50.0 °F 82% 29.03 in 3.7 mi SW 20.7 mph - N/A Rain Light Rain Showers
2:50 PM 48.2 °F - 46.4 °F 93% 29.06 in 3.1 mi NW 18.4 mph - N/A Rain Rain Showers
3:20 PM 48.2 °F - 46.4 °F 93% 29.09 in 3.7 mi NW 16.1 mph - N/A Rain Rain Showers
3:50 PM 46.4 °F 40.1 °F 44.6 °F 93% 29.12 in 5.0 mi NW 15.0 mph - N/A Rain Light Rain
4:20 PM 46.4 °F 39.8 °F 44.6 °F 93% 29.18 in 6.2 mi NW 16.1 mph - N/A Rain Light Rain
4:50 PM 46.4 °F 40.7 °F 44.6 °F 93% 29.21 in 6.2 mi NW 12.7 mph - N/A Rain Light Rain
5:20 PM 46.4 °F 42.4 °F 44.6 °F 93% 29.24 in 6.2 mi WNW 8.1 mph - N/A   Mostly Cloudy
5:50 PM 46.4 °F 41.9 °F 44.6 °F 93% 29.27 in 6.2 mi WNW 9.2 mph - N/A   Mostly Cloudy
6:20 PM 46.4 °F 42.9 °F 42.8 °F 87% 29.30 in 6.2 mi West 6.9 mph - N/A   Mostly Cloudy
6:50 PM 44.6 °F 41.4 °F 42.8 °F 93% 29.33 in 6.2 mi WSW 5.8 mph - N/A   Partly Cloudy
7:20 PM 44.6 °F 41.4 °F 42.8 °F 93% 29.33 in 6.2 mi WSW 5.8 mph - N/A   Partly Cloudy
7:50 PM 42.8 °F 39.3 °F 42.8 °F 100% 29.36 in 6.2 mi WSW 5.8 mph - N/A   Partly Cloudy